Location: Unspecified
(0.0000°N, 0.0000°E)
Time: 12:04:00
(UTC+00:00)

deb Delta 126 - Pass Details

Date: 23 February 2026
Orbit: 1137 x 1258 km, 102.0° (Epoch: 8 March)

Event Time Altitude Azimuth Distance (km) Brightness Sun altitude
Rises 03:25:17 0° 168° (SSE) 4,200 ? -41.3°
Reaches altitude 10° 03:27:56 10° 170° (S) 3,236 ? -40.6°
Enters shadow 03:30:42 25° 174° (S) 2,279 ? -40.0°
